Regional Weather Roundup
Issued by NWS

Home | Current Version | Previous Version | Text Only | Print | Product List | Glossary Off
Versions: 1 2 3 4 5 6 7 8 9 10 11 12 13 14 15 16 17 18 19 20 21 22 23 24 25 26 27 28 29 30 31 32 33 34 35 36 37 38 39 40 41 42 43 44 45 46 47 48 49 50

000
ASUS44 KMEG 031200
RWRTN
TENNESSEE HOURLY STATE WEATHER ROUNDUP
NATIONAL WEATHER SERVICE MEMPHIS TN
700 AM CDT WED JUN 03 2015

TNZ002-004-019-021-049-052-054-088>092-031300-
WEST TENNESSEE

CITY           SKY/WX    TMP DP  RH WIND       PRES   REMARKS
MEMPHIS INTL   PTSUNNY   63  60  90 CALM      30.04R FOG
NWS MEMPHIS      N/A     58 N/A N/A MISG        N/A
JACKSON        CLOUDY    62  60  93 CALM      30.03R FOG
DYERSBURG      SUNNY     63  48  59 CALM      30.04S
PARIS          CLOUDY    61  57  88 NE5       30.04S
LEXINGTON      CLOUDY    61  59  94 N3        30.02S
$$

TNZ008-025-027-028-033-062-065-066-031300-
NORTH MIDDLE TENNESSEE

CITY           SKY/WX    TMP DP  RH WIND       PRES   REMARKS
NASHVILLE      PTSUNNY   61  57  87 N7        30.04R
CLARKSVILLE    CLOUDY    60  56  86 NE5       30.04S
COOKEVILLE     CLOUDY    61  61 100 N3        30.02R
CROSSVILLE     CLOUDY    59  57  93 NE5       30.04S
$$

TNZ061-075-076-078-094-096-097-031300-
SOUTH MIDDLE TENNESSEE

CITY           SKY/WX    TMP DP  RH WIND       PRES   REMARKS
FAYETTEVILLE   CLOUDY   N/A N/A N/A MISG      30.01R
TULLAHOMA      CLOUDY    63  59  88 CALM      30.03R
WINCHESTER     PTSUNNY   64  61  88 CALM      30.01R
MCMINNVILLE    CLOUDY    61  61 100 NE5       30.02R
COLUMBIA       CLOUDY    63  61  94 N3        30.01R
SHELBYVILLE    CLOUDY    63  61  94 N7        30.03R
$$

TNZ017-018-042-046-047-031300-
NORTHEAST TENNESSEE

CITY           SKY/WX    TMP DP  RH WIND       PRES   REMARKS
TRI CITIES     CLOUDY    62  59  90 N5        30.04R FOG
ELIZABETHTON   SUNNY     55  55 100 CALM      30.05R
$$

TNZ012-013-036-069-073-074-031300-
CENTRAL EAST TENNESSEE

CITY           SKY/WX    TMP DP  RH WIND       PRES   REMARKS
KNOXVILLE      CLOUDY    62  60  93 E5        30.02R FOG
OAK RIDGE      SUNNY     65  59  81 VRB5      30.04R
GATLINBURG     CLOUDY    57  57 100 CALM      30.03R
$$

TNZ083-085-099-031300-
SOUTHEAST TENNESSEE

CITY           SKY/WX    TMP DP  RH WIND       PRES   REMARKS
CHATTANOOGA    PTSUNNY   64  60  87 NE10      30.01R
$$

SKY/WX REPORTED AS FAIR MEANS FEW OR NO CLOUDS BELOW
12 THOUSAND FEET.



USA.gov is the U.S. government's official web portal to all federal, state and local government web resources and services.